Logan, UT

4:01 PM MST on November 20, 2019 (GMT -0700)
Logan-Cache

Weather History for KLGU - August, 2019

Change the Weather History Date:

Friday, August 16, 2019

  Actual Average Record
Temperature  
Mean Temperature 69 °F -  
Max Temperature 87 °F 86 °F 97 °F (2007)
Min Temperature 52 °F 51 °F 36 °F (1968)
Cooling Degree Days 4    
Growing Degree Days 19 (Base 50)    
Moisture  
Dew Point 41 °F    
Average Humidity 41    
Maximum Humidity 74    
Minimum Humidity 17    
Precipitation  
Precipitation 0.00 in - - ()
Sea Level Pressure  
Sea Level Pressure 29.85 in    
Wind  
Wind Speed 3 mph (WNW)    
Max Wind Speed 10 mph    
Max Gust Speed -    
Visibility 10 miles    
Events      
Averages and records for this station are not official NWS values.
T = Trace of Precipitation, MM = Missing Value Source: NWS Daily Summary

Daily Weather History Graph

Daily Weather History Graph

Search for Another Location

Airport or City:

Astronomy

Aug. 16, 2019 Rise Set
Actual Time 6:36 AM MDT 8:26 PM MDT
Civil Twilight 6:06 AM MDT 8:55 PM MDT
Nautical Twilight 5:30 AM MDT 9:32 PM MDT
Astronomical Twilight 4:50 AM MDT 10:11 PM MDT
Moon 9:26 PM MDT (8/16) 7:31 AM MDT (8/16)
Length of Visible Light 14h 49m
Length of Day
13h 49m
Full, 99% of the Moon is Illuminated
Aug 16
Full
Aug 23
Last Quarter
Aug 30
New
Sep 5
First Quarter
Sep 13
Full

Hourly Weather History & Observations

Time (MDT) Temp. Dew Point Humidity Pressure Visibility Wind Dir Wind Speed Gust Speed Precip Events Conditions
12:51 AM 60.1 °F 44.1 °F 55% 29.88 in 10.0 mi Calm Calm - N/A   Clear
1:51 AM 59.0 °F 46.0 °F 62% 29.87 in 10.0 mi Calm Calm - N/A   Clear
2:51 AM 57.9 °F 45.0 °F 62% 29.87 in 10.0 mi Calm Calm - N/A   Clear
3:51 AM 57.0 °F 44.1 °F 62% 29.88 in 10.0 mi Calm Calm - N/A   Clear
4:51 AM 57.0 °F 44.1 °F 62% 29.87 in 10.0 mi Calm Calm - N/A   Clear
5:51 AM 53.1 °F 44.1 °F 71% 29.89 in 10.0 mi North 3.5 mph - N/A   Clear
6:51 AM 52.0 °F 44.1 °F 74% 29.92 in 10.0 mi Calm Calm - N/A   Clear
7:51 AM 57.9 °F 45.0 °F 62% 29.92 in 10.0 mi South 4.6 mph - N/A   Clear
8:51 AM 64.0 °F 44.1 °F 48% 29.95 in 10.0 mi SSW 5.8 mph - N/A   Clear
9:51 AM 69.1 °F 42.1 °F 38% 29.94 in 10.0 mi Calm Calm - N/A   Clear
11:51 AM 80.1 °F 35.1 °F 20% 29.90 in 10.0 mi NNW 6.9 mph - N/A   Clear
12:51 PM 82.0 °F 36.0 °F 19% 29.89 in 10.0 mi NNE 8.1 mph - N/A   Clear
1:51 PM 82.9 °F 37.0 °F 19% 29.87 in 10.0 mi Variable 6.9 mph - N/A   Clear
2:51 PM 84.9 °F 36.0 °F 17% 29.84 in 10.0 mi North 8.1 mph - N/A   Clear
3:51 PM 86.0 °F 37.0 °F 18% 29.82 in 10.0 mi WNW 9.2 mph - N/A   Clear
4:51 PM 84.9 °F 37.0 °F 18% 29.80 in 10.0 mi SW 5.8 mph - N/A   Clear
5:51 PM 86.0 °F 36.0 °F 17% 29.79 in 10.0 mi Calm Calm - N/A   Clear
6:51 PM 84.9 °F 36.0 °F 17% 29.78 in 10.0 mi Calm Calm - N/A   Clear
7:51 PM 82.9 °F 36.0 °F 19% 29.76 in 10.0 mi Calm Calm - N/A   Clear
8:51 PM 70.0 °F 43.0 °F 38% 29.79 in 10.0 mi North 10.4 mph - N/A   Clear
9:51 PM 63.0 °F 43.0 °F 48% 29.81 in 10.0 mi NW 9.2 mph - N/A   Clear
10:51 PM 66.0 °F 44.1 °F 45% 29.80 in 10.0 mi SSW 6.9 mph - N/A   Clear
11:51 PM 64.9 °F 44.1 °F 47% 29.79 in 10.0 mi SW 4.6 mph - N/A   Clear